User: anonymous   Login
Location: Unspecified
(0.0000°N, 0.0000°E)
Time: 18:27:19
(UTC+00:00)
Language:

Vela 1A - Orbit

View from above orbital plane
View from above orbital plane
View from above satellite
View from above satellite

Ground track
Ground track

The orbit data is extracted from the following two-line orbital elements,

1 00692U 63039C   16177.28280101 -.00000658  00000-0  00000+0 0  9991
2 00692  37.2194 356.6521 5554326 175.3651   0.2387  0.21956906 42533
Epoch (UTC): 25 June 2016 06:47:14
Eccentricity: 0.5554326
inclination: 37.2194°
perigee height: 45218 km
apogee height: 174145 km
right ascension of ascending node: 356.6521°
argument of perigee: 175.3651°
revolutions per day: 0.21956906
mean anomaly at epoch: 0.2387°
orbit number at epoch: 4253

The dashed part of the orbit path shows where the satellite is in the earth's shadow,  

DLR